Weather observations for the past three days for
Eagle County Regional
Imperial (Metric)
Date Time (mdt) Wind (mph) Vis. (mi.) Weather Sky Cond. Temperature (ºF) Relative Humidity Wind Chill (°F) Heat Index (°F) Pressure Precipitation (in)
Air Dwpt 6 hour altimeter (in) sea level (mb) 1 hr 3 hr 6 hr
Max. Min.
15 16:56 NW 28 G 41 9.00 Squalls and Windy CLR 84 41 22% 81 30.21 1013.0
15 15:56 W 18 G 24 10.00 Fair CLR 90 42.1 19% 86 30.2 1012.5
15 14:56 SW 14 G 25 10.00 Fair CLR 88 39.9 18% 84 30.23 1013.5
15 13:56 SW 18 G 24 10.00 Fair CLR 88 42.1 20% 84 30.27 1014.4
15 12:56 S 14 G 23 10.00 Fair CLR 84.9 44.1 24% 82 30.29 1015.2
15 11:56 W 9 10.00 Fair CLR 84.9 45 84.9 60.1 25% 82 30.32 1015.9
15 10:56 Vrbl 5 10.00 Fair CLR 82 46 28% 80 30.34 1016.6
15 09:56 NE 5 10.00 Fair CLR 75.9 46 35% 78 30.37 1017.2
15 08:56 Calm 10.00 Fair CLR 71.1 46 41% 30.38 1017.7
15 07:56 Calm 10.00 Fair CLR 68 48 49% 30.39 1018.0
15 06:56 E 5 10.00 Fair CLR 62.1 46 56% 30.39 1017.9
15 05:56 Calm 10.00 Mostly Cloudy BKN110 61 46 72 61 58% 30.38 1017.8
15 04:56 Calm 10.00 Light Rain SCT120 62.1 45 54% 30.37 1017.3
15 03:56 Calm 10.00 A Few Clouds FEW120 64.9 44.1 47% 30.34 1016.6
15 02:56 E 6 10.00 A Few Clouds FEW110 64.9 46 51% 30.35 1016.8
15 01:56 E 6 10.00 Fair CLR 64.9 45 49% 30.36 1017.2
15 00:56 Calm 10.00 A Few Clouds FEW120 70 45 41% 30.38 1017.7
14 23:56 Calm 10.00 Fair CLR 72 45 86 72 38% 30.34 1016.6
14 22:56 NE 6 10.00 Fair CLR 73 45 37% 30.34 1016.6
14 21:56 N 6 10.00 Partly Cloudy SCT110 77 44.1 31% 78 30.36 1017.2
14 20:56 SW 7 10.00 A Few Clouds FEW110 78.1 44.1 30% 78 30.35 1016.8
14 19:56 SW 14 10.00 Overcast FEW065 OVC100 82.9 42.1 24% 81 30.29 1015.2
14 18:56 SE 10 10.00 Fair CLR 86 41 20% 83 30.27 1014.6
14 17:56 E 13 10.00 Partly Cloudy SCT110 86 44.1 93 86 23% 83 30.28 1014.9
14 16:56 W 9 10.00 Partly Cloudy SCT120 89.1 39 17% 85 30.29 1014.9
14 15:56 W 6 G 17 10.00 Fair CLR 91.9 39 16% 88 30.29 1015.1
14 14:56 Vrbl 6 G 18 10.00 Fair CLR 89.1 37 16% 85 30.3 1015.5
14 13:56 N 16 G 31 8.00 Mostly Cloudy BKN120 89.1 39.9 18% 85 30.32 1015.9
14 12:56 Calm 10.00 Fair CLR 91 39.9 17% 87 30.34 1016.4
14 11:56 NE 6 10.00 Fair CLR 87.1 39.9 87.1 54 19% 84 30.37 1017.4
14 10:56 Calm 10.00 Fair CLR 78.1 37 23% 78 30.41 1018.4
14 09:56 Calm 10.00 Fair CLR 73.9 39 28% 30.43 1019.0
14 08:56 Calm 10.00 Fair CLR 66 39 37% 30.45 1019.7
14 07:56 Calm 10.00 Fair CLR 61 37.9 43% 30.46 1020.0
14 06:56 Calm 10.00 Fair CLR 55.9 39 53% 30.45 1019.7
14 05:56 E 6 10.00 Fair CLR 55 37.9 72 55 53% 30.43 1019.1
14 04:56 E 3 10.00 Fair CLR 57.9 37.9 48% 30.42 1018.7
14 03:56 S 3 10.00 Fair CLR 60.1 37.9 44% 30.4 1018.2
14 02:56 SE 3 10.00 Fair CLR 62.1 37.9 41% 30.39 1017.9
14 01:56 SE 6 10.00 Fair CLR 64.9 39 39% 30.39 1018.1
14 00:56 E 12 10.00 Fair CLR 69.1 37.9 32% 30.4 1018.1
13 23:56 E 6 10.00 Fair CLR 72 37.9 93.9 72 29% 30.39 1017.9
13 22:56 NE 5 10.00 Fair CLR 77 37.9 24% 77 30.38 1017.6
13 21:56 Vrbl 5 10.00 A Few Clouds FEW120 78.1 37.9 24% 78 30.36 1017.0
13 20:56 E 12 10.00 Fair CLR 78.1 39.9 26% 78 30.33 1016.3
13 19:56 W 6 10.00 Fair CLR 86 34 15% 83 30.31 1015.6
13 18:56 NW 8 10.00 Fair CLR 89.1 28.9 11% 85 30.3 1015.4
13 17:56 N 9 10.00 Fair CLR 93.9 27 95 84 9% 89 30.29 1015.2
13 16:56 Calm 10.00 Fair CLR 93.9 32 11% 89 30.3 1015.4
13 15:56 W 6 10.00 Fair CLR 91 30.9 12% 87 30.32 1015.9
13 14:56 NW 3 10.00 Fair CLR 91 32 12% 87 30.33 1016.3
13 13:56 Vrbl 5 10.00 Fair CLR 91 32 12% 87 30.35 1016.7
13 12:56 Vrbl 5 10.00 Fair CLR 91 33.1 13% 87 30.37 1017.2
13 11:56 W 3 10.00 Fair CLR 84.9 33.1 84.9 51.1 15% 82 30.4 1018.1
13 10:56 Calm 10.00 Fair CLR 80.1 33.1 18% 79 30.42 1018.8
13 09:56 Calm 10.00 Fair CLR 72 34 25% 30.44 1019.4
13 08:56 Calm 10.00 Fair CLR 64.9 35.1 33% 30.45 1019.8
13 07:56 Calm 10.00 Fair CLR 59 36 42% 30.45 1019.8
13 06:56 Calm 10.00 Fair CLR 55 35.1 47% 30.44 1019.5
13 05:56 E 6 10.00 Fair CLR 51.1 34 66.9 51.1 52% 30.42 1019.0
13 04:56 Calm 10.00 Fair CLR 55 35.1 47% 30.39 1018.1
13 03:56 Calm 10.00 Fair CLR 55.9 34 44% 30.37 1017.3
13 02:56 SE 5 10.00 Fair CLR 57.9 34 41% 30.35 1017.0
13 01:56 Calm 10.00 Fair CLR 60.1 36 41% 30.35 1016.8
13 00:56 E 5 10.00 Fair CLR 64 35.1 34% 30.34 1016.6
12 23:56 E 3 10.00 Fair CLR 66 35.1 95 66 32% 30.34 1016.5
12 22:56 Calm 10.00 Fair CLR 70 36 29% 30.33 1016.1
12 21:56 E 10 10.00 Fair CLR 71.1 37 29% 30.3 1015.5
12 20:56 E 8 10.00 Fair CLR 81 33.1 18% 79 30.27 1014.6
12 19:56 NE 6 10.00 Fair CLR 89.1 30.9 12% 85 30.26 1014.2
12 18:56 N 14 G 17 10.00 Fair CLR 91 28.9 11% 87 30.24 1013.7
12 17:56 Vrbl 3 10.00 Fair CLR 95 27 95 84 9% 90 30.24 1013.7
Date Time (mdt) Wind (mph) Vis. (mi.) Weather Sky Cond. Air Dwpt Max. Min. Relative Humidity Wind Chill (°F) Heat Index (°F) altimeter (in) sea level (mb) 1 hr 3 hr 6 hr
6 hour
Temperature (ºF) Pressure Precipitation (in)